Tracking 19796 objects as of 19-Jul-2019
HD Live streaming from Space Station
objects crossing your sky now

COSMOS 1814

Track COSMOS 1814 now!
10-day predictions
COSMOS 1814 is classified as:


NORAD ID: 17303
Int'l Code: 1987-006A
Perigee: 764.0 km
Apogee: 800.5 km
Inclination: 74.1 °
Period: 100.3 minutes
Semi major axis: 7153 km
RCS: 2.1989 m2 (large)
Launch date: January 21, 1987
Source: Commonwealth of Independent States (former USSR) (CIS)
Launch site: PLESETSK MISSILE AND SPACE COMPLEX (PKMTR)
aabbcc
Your satellite tracking list
Your tracking list is empty




NASA's NSSDC Master Catalog

Two Line Element Set (TLE):
1 17303U 87006A   19200.49537824 -.00000005  00000-0  74953-5 0  9998
2 17303  74.0544 201.6894 0025471 210.9883 316.1244 14.34992325700303
Source of the keplerian elements: AFSPC